N254SB KRNT-KLAS

Flight info

Callsign N254SB
Flight time 1h 13m
Altitude 41000
Route TAOMA J5 FMG J92 OAL TQILA COKTL4
Aircraft C25C/M-SDE2E3FGHRWXY/LB1

Departure

Time 2026-05-04 05:16
Airport Renton Municipal Airport (KRNT)

Arrival

Time 2026-05-04 06:29
Airport Harry Reid International Airport (KLAS)
Time Latitude Longitude Altitude Speed Heading
2026-05-04 04:59 47.49329 -122.21766 25 ft 0 kts 263°
2026-05-04 05:09 47.49314 -122.21772 28 ft 4 kts 136°
2026-05-04 05:10 47.49300 -122.21736 26 ft 4 kts 120°
2026-05-04 05:10 47.49285 -122.21707 26 ft 3 kts 137°
2026-05-04 05:10 47.49253 -122.21688 26 ft 6 kts 174°
2026-05-04 05:10 47.49211 -122.21682 26 ft 6 kts 174°
2026-05-04 05:11 47.49177 -122.21676 27 ft 4 kts 174°
2026-05-04 05:11 47.49156 -122.21673 28 ft 1 kts 174°
2026-05-04 05:11 47.49149 -122.21672 28 ft 0 kts 174°
2026-05-04 05:11 47.49146 -122.21672 28 ft 1 kts 174°
2026-05-04 05:12 47.49132 -122.21670 29 ft 4 kts 174°
2026-05-04 05:12 47.49083 -122.21663 31 ft 10 kts 174°
2026-05-04 05:12 47.48993 -122.21651 31 ft 17 kts 175°
2026-05-04 05:12 47.48845 -122.21631 29 ft 25 kts 175°
2026-05-04 05:13 47.48655 -122.21606 28 ft 20 kts 173°
2026-05-04 05:13 47.48602 -122.21553 27 ft 0 kts 99°
2026-05-04 05:15 47.48601 -122.21538 27 ft 6 kts 95°
2026-05-04 05:15 47.48627 -122.21471 27 ft 10 kts 359°
2026-05-04 05:15 47.48867 -122.21508 31 ft 77 kts 354°
2026-05-04 05:15 47.49733 -122.21632 169 ft 161 kts 355°
2026-05-04 05:16 47.50984 -122.21769 938 ft 200 kts 354°
2026-05-04 05:16 47.52452 -122.21998 2232 ft 214 kts 355°
2026-05-04 05:16 47.54086 -122.22251 3037 ft 256 kts 354°
2026-05-04 05:16 47.55839 -122.22516 2998 ft 246 kts 354°
2026-05-04 05:17 47.57508 -122.22778 2991 ft 237 kts 354°
2026-05-04 05:17 47.59102 -122.23021 2989 ft 230 kts 354°
2026-05-04 05:17 47.60677 -122.23188 2989 ft 224 kts
2026-05-04 05:17 47.62215 -122.23024 2990 ft 221 kts
2026-05-04 05:18 47.63749 -122.22830 2986 ft 222 kts
2026-05-04 05:18 47.65288 -122.22610 2982 ft 222 kts
2026-05-04 05:18 47.66824 -122.22390 2985 ft 222 kts
2026-05-04 05:18 47.68362 -122.22175 2984 ft 222 kts
2026-05-04 05:19 47.69898 -122.21953 2984 ft 222 kts
2026-05-04 05:19 47.71430 -122.21670 2977 ft 222 kts 16°
2026-05-04 05:19 47.72552 -122.20136 3343 ft 235 kts 72°
2026-05-04 05:19 47.72674 -122.17824 5119 ft 224 kts 91°
2026-05-04 05:20 47.72058 -122.15704 6533 ft 233 kts 132°
2026-05-04 05:20 47.70712 -122.14372 7915 ft 238 kts 163°
2026-05-04 05:20 47.69045 -122.14235 9315 ft 243 kts 180°
2026-05-04 05:20 47.67337 -122.14266 10629 ft 248 kts 180°
2026-05-04 05:21 47.65580 -122.14245 11851 ft 258 kts 177°
2026-05-04 05:21 47.63690 -122.14134 12699 ft 285 kts 177°
2026-05-04 05:21 47.61641 -122.14015 13720 ft 300 kts 177°
2026-05-04 05:21 47.59540 -122.13909 14907 ft 305 kts 178°
2026-05-04 05:22 47.57398 -122.13814 16089 ft 311 kts 178°
2026-05-04 05:22 47.55217 -122.13701 17267 ft 317 kts 178°
2026-05-04 05:22 47.52991 -122.13593 18385 ft 323 kts 177°
2026-05-04 05:22 47.50719 -122.13477 19348 ft 330 kts 178°
2026-05-04 05:23 47.48402 -122.13365 20304 ft 337 kts 177°
2026-05-04 05:23 47.46037 -122.13247 21248 ft 343 kts 177°
2026-05-04 05:23 47.43622 -122.13128 22175 ft 351 kts 176°
2026-05-04 05:23 47.41162 -122.13008 23095 ft 357 kts 177°
2026-05-04 05:24 47.38652 -122.12882 23909 ft 364 kts 176°
2026-05-04 05:24 47.36107 -122.12761 24684 ft 368 kts 176°
2026-05-04 05:24 47.33536 -122.12631 25504 ft 371 kts 176°
2026-05-04 05:24 47.30936 -122.12506 26239 ft 376 kts 176°
2026-05-04 05:25 47.28335 -122.12374 26945 ft 381 kts 176°
2026-05-04 05:25 47.25632 -122.12248 27651 ft 386 kts 176°
2026-05-04 05:25 47.22969 -122.12112 28305 ft 391 kts 176°
2026-05-04 05:25 47.20444 -122.11995 29028 ft 391 kts 176°
2026-05-04 05:26 47.17714 -122.11857 29902 ft 390 kts 176°
2026-05-04 05:26 47.14984 -122.11728 30578 ft 391 kts 175°
2026-05-04 05:26 47.12262 -122.11595 31207 ft 392 kts 174°
2026-05-04 05:26 47.09534 -122.11460 31890 ft 392 kts 174°
2026-05-04 05:27 47.06813 -122.11330 32517 ft 392 kts 173°
2026-05-04 05:28 46.87872 -122.09015 36126 ft 385 kts 158°
2026-05-04 05:29 46.85304 -122.07959 36647 ft 383 kts 158°
2026-05-04 05:29 46.82723 -122.06945 37109 ft 384 kts 159°
2026-05-04 05:29 46.80131 -122.05951 37535 ft 385 kts 159°
2026-05-04 05:29 46.77539 -122.04956 37978 ft 385 kts 158°
2026-05-04 05:31 46.59128 -121.97803 40285 ft 395 kts 160°
2026-05-04 05:31 46.56470 -121.96776 40672 ft 394 kts 160°
2026-05-04 05:32 46.53808 -121.95750 40850 ft 399 kts 160°
2026-05-04 05:32 46.51097 -121.94707 40898 ft 407 kts 160°
2026-05-04 05:33 46.42607 -121.91466 40911 ft 433 kts 161°
2026-05-04 05:33 46.36662 -121.89292 40908 ft 447 kts 162°
2026-05-04 05:34 46.30595 -121.87147 40898 ft 456 kts 162°
2026-05-04 05:34 46.24397 -121.85046 40893 ft 457 kts 163°
2026-05-04 05:35 46.18198 -121.83058 40895 ft 455 kts 164°
2026-05-04 05:35 46.12011 -121.81157 40883 ft 454 kts 164°
2026-05-04 05:36 46.05827 -121.79361 40866 ft 453 kts 165°
2026-05-04 05:36 45.99648 -121.77659 40877 ft 452 kts 166°
2026-05-04 05:37 45.93467 -121.76055 40869 ft 451 kts 166°
2026-05-04 05:37 45.88285 -121.74781 40854 ft 451 kts 167°
2026-05-04 05:38 45.79041 -121.72672 40845 ft 450 kts 168°
2026-05-04 05:38 45.72856 -121.71376 40829 ft 448 kts 168°
2026-05-04 05:39 45.63487 -121.69589 40845 ft 447 kts 169°
2026-05-04 05:40 45.54246 -121.68055 40858 ft 449 kts 170°
2026-05-04 05:40 45.48009 -121.67120 40866 ft 452 kts 171°
2026-05-04 05:41 45.41735 -121.66265 40860 ft 454 kts 171°
2026-05-04 05:41 45.35442 -121.65345 40871 ft 453 kts 166°
2026-05-04 05:42 45.29609 -121.62234 40879 ft 445 kts 146°
2026-05-04 05:42 45.27100 -121.59714 40879 ft 439 kts 135°
2026-05-04 05:42 45.24963 -121.56659 40877 ft 434 kts 125°
2026-05-04 05:43 45.22043 -121.49409 40879 ft 423 kts 105°
2026-05-04 05:45 45.05543 -121.27396 40874 ft 454 kts 173°
2026-05-04 05:47 44.71197 -121.25227 40887 ft 452 kts 167°
2026-05-04 05:47 44.58946 -121.21407 40884 ft 452 kts 166°
2026-05-04 05:48 44.46675 -121.17587 40888 ft 451 kts 165°
2026-05-04 05:48 44.34423 -121.13777 40895 ft 451 kts 165°
2026-05-04 05:49 44.22149 -121.09968 40961 ft 451 kts 165°
2026-05-04 05:49 44.09934 -121.05825 40964 ft 451 kts 163°
2026-05-04 05:51 43.61294 -120.88831 40908 ft 452 kts 164°
2026-05-04 05:52 43.37700 -120.80680 40910 ft 450 kts 164°
2026-05-04 05:52 43.13535 -120.72402 40905 ft 449 kts 165°
2026-05-04 05:54 42.16520 -120.40899 40980 ft 445 kts 167°
2026-05-04 05:55 41.92520 -120.33781 40924 ft 443 kts 167°
2026-05-04 05:55 41.68455 -120.26694 40860 ft 441 kts 167°
2026-05-04 05:56 41.44501 -120.19696 40905 ft 439 kts 168°
2026-05-04 05:56 41.20592 -120.12763 40857 ft 440 kts 168°
2026-05-04 05:57 40.96601 -120.05851 40863 ft 440 kts 168°
2026-05-04 05:57 40.72854 -119.99066 40877 ft 438 kts 169°
2026-05-04 05:58 40.49066 -119.92323 40876 ft 436 kts 169°
2026-05-04 05:58 40.25347 -119.85646 40867 ft 435 kts 169°
2026-05-04 05:59 40.01651 -119.79024 40884 ft 435 kts 169°
2026-05-04 05:59 39.77952 -119.72449 40973 ft 433 kts 170°
2026-05-04 06:00 39.54408 -119.65913 40989 ft 432 kts 167°
2026-05-04 06:00 39.44681 -119.56849 40969 ft 445 kts 130°
2026-05-04 06:00 39.36811 -119.44598 40933 ft 440 kts 142°
2026-05-04 06:01 39.19258 -119.22755 40895 ft 442 kts 139°
2026-05-04 06:03 38.47987 -118.34601 40912 ft 448 kts 142°
2026-05-04 06:05 37.93289 -117.69424 40809 ft 453 kts 148°
2026-05-04 06:05 37.74073 -117.48540 40795 ft 454 kts 149°
2026-05-04 06:06 37.54855 -117.27846 40808 ft 454 kts 149°
2026-05-04 06:06 37.34875 -117.08960 40809 ft 447 kts 155°
2026-05-04 06:07 37.16356 -116.92972 40785 ft 446 kts 155°
2026-05-04 06:07 37.11241 -116.88552 40785 ft 446 kts 155°
2026-05-04 06:08 37.06196 -116.84202 40748 ft 432 kts 156°
2026-05-04 06:08 37.03749 -116.82085 40576 ft 419 kts 156°
2026-05-04 06:08 37.01385 -116.80053 40546 ft 404 kts 157°
2026-05-04 06:08 36.99103 -116.78098 40526 ft 391 kts 157°
2026-05-04 06:09 36.96897 -116.76207 40421 ft 378 kts 158°
2026-05-04 06:09 36.94737 -116.74358 39731 ft 376 kts 158°
2026-05-04 06:11 36.79231 -116.61101 33500 ft 393 kts 159°
2026-05-04 06:11 36.77013 -116.59185 33017 ft 381 kts 159°
2026-05-04 06:13 36.63172 -116.46378 29715 ft 351 kts 143°
2026-05-04 06:14 36.50688 -116.28721 26094 ft 328 kts 144°
2026-05-04 06:14 36.47687 -116.24494 25233 ft 324 kts 144°
2026-05-04 06:15 36.44721 -116.20322 24396 ft 321 kts 144°
2026-05-04 06:15 36.41773 -116.16180 23553 ft 319 kts 144°
2026-05-04 06:15 36.38849 -116.12085 22686 ft 314 kts 143°
2026-05-04 06:15 36.36031 -116.08115 21865 ft 307 kts 142°
2026-05-04 06:16 36.33161 -116.04206 21050 ft 292 kts 147°
2026-05-04 06:16 36.30592 -116.00363 20332 ft 291 kts 141°
2026-05-04 06:16 36.27849 -115.96722 19565 ft 288 kts 139°
2026-05-04 06:16 36.25217 -115.93004 18802 ft 285 kts 136°
2026-05-04 06:17 36.22801 -115.89200 18275 ft 276 kts 133°
2026-05-04 06:17 36.21007 -115.86360 17824 ft 270 kts 133°
2026-05-04 06:17 36.19852 -115.84531 17596 ft 264 kts 133°
2026-05-04 06:17 36.18740 -115.82766 17487 ft 256 kts 134°
2026-05-04 06:18 36.17653 -115.81040 17286 ft 254 kts 134°
2026-05-04 06:18 36.16555 -115.79319 17059 ft 256 kts 134°
2026-05-04 06:18 36.15428 -115.77542 16815 ft 269 kts 134°
2026-05-04 06:20 36.07161 -115.53278 13926 ft 329 kts 114°
2026-05-04 06:20 36.05524 -115.47986 13255 ft 329 kts 115°
2026-05-04 06:21 36.02044 -115.36760 11934 ft 324 kts 115°
2026-05-04 06:21 36.01515 -115.34050 11619 ft 331 kts 98°
2026-05-04 06:22 36.01420 -115.31204 11297 ft 330 kts 97°
2026-05-04 06:22 36.01238 -115.27528 10895 ft 329 kts 97°
2026-05-04 06:25 36.04044 -114.98191 7975 ft 235 kts 11°
2026-05-04 06:25 36.05104 -114.98197 7974 ft 219 kts 344°
2026-05-04 06:26 36.06397 -114.98969 7956 ft 197 kts 315°
2026-05-04 06:26 36.07151 -115.00235 7882 ft 176 kts 289°
2026-05-04 06:26 36.07664 -115.01621 7430 ft 175 kts 287°
2026-05-04 06:26 36.08169 -115.02992 6588 ft 178 kts 279°
2026-05-04 06:27 36.07305 -115.09274 2728 ft 172 kts 271°
2026-05-04 06:28 36.07401 -115.10511 2619 ft 118 kts 268°
2026-05-04 06:28 36.07413 -115.11474 2300 ft 114 kts 264°
2026-05-04 06:28 36.07370 -115.12448 2191 ft 117 kts 264°
2026-05-04 06:28 36.07370 -115.13332 2120 ft 89 kts 264°
2026-05-04 06:29 36.07364 -115.13938 2118 ft 47 kts 270°
2026-05-04 06:29 36.07369 -115.14242 2120 ft 29 kts 274°
2026-05-04 06:29 36.07414 -115.14455 2121 ft 24 kts 294°
2026-05-04 06:29 36.07469 -115.14588 2118 ft 0 kts 304°